Starlink 31618

operational
NORAD ID: 59528 Int'l Des: 2024-073 Owner: SPXS Country: US Constellation: starlink
LEOCIRCULAR

Über Starlink 31618

Beschreibung wird geladen...

Live-Position

3D-Globus wird geladen...

Nächste Überflüge

Höhenverlauf

Altitude vs Time

uPlot chart will show altitude changes over time

Zweizeiliger Elementsatz

1 59528U 24073T 25259.16979454 .00084157 00000-0 19838-2 0 9999
2 59528 42.9953 219.4160 0010758 151.7738 208.3703 15.40887199 79538
Epoch: 16. Sept. 2025 • Age: 8 hours

Aktueller Status

Höhe 455.3 km
Geschwindigkeit 7.64 km/s
Subsatellitenpunkt -20.83°S, 22.19°E
Startdatum 17. Apr. 2024
Alter 1.4 years
Typ internet

Technische Details

Klassifizierung Payload
Masse 730.00 kg
Trockenmasse 700.00 kg
Gesamtmasse 730.00 kg
Länge 0.30 m
Durchmesser 4.10 m
Spannweite 29.00 m
Form Box + pan
Hersteller SPXS
Bus-Typ Starlink V2M
Phasenstatus In Orbit
Besitzer/Staat SPXS/US

Große Konstellationen

Loading constellations...